Showing default

LEMUR-2 PEGGY-2004, 68479

Orbit data source: Space-Track

LEMUR-2 PEGGY-2004, 68479 is a payload satellite owned by Spire (LU) in SSO that was launched on Mon, 30 Mar 2026 UTC via an FALCON 9 launch vehicle from the Air Force Western Test Range (AFWTR). Payload-class satellites include a variety of spacecraft equipped with specific instruments for various scientific and technological missions. These include communications satellites like Starlink; space stations such as the ISS; scientific satellites like the Hubble; Earth observation satellites from companies like Planet Labs, Umbra, and HawkEye 360; GPS; miniature CubeSats for education and research; and military/defense satellites.

Loading next visibility...
Identifier
68479, 2026-067BR
Orbit
SSO
Country
Flag of LULU / LUXE
Related business
Manufacturer
Spire/Glasgow
Mission
Operational Commercial Com/MetRO
Bus & Motor
CUBESAT 3U, Unknown motor
Mass
7.6 kg wet, 7.6 kg dry
Launch date (UTC)
2026-03-30 (6 months ago)
Launch vehicle
FALCON 9
Launch site
Air Force Western Test Range (AFWTR)
Object type
Payload
Rocket body
Debris
Shape & HBR
Box + 2 Pan, 0.5 m
Radar Cross Section
0.063 m², Medium (>0.1 m² and < 1m²)

Expand to show TLE details & history
Last TLE update: 11 hours ago

TLE from 11 hours ago
0 LEMUR-2 PEGGY-2004
1 68479U 26067BR  26263.11147194  .00002871  00000-0  27817-3 0  9998
2 68479  97.7646 220.1036 0001380  36.7492 323.3822 14.93491681 25895
Epoch: 2026-09-20T02:40Z
TLE epoch observation values (Epoch: 2026-09-20T02:40:31.175Z)
Latitude
-0.00004°
Longitude
-179.03663°
Altitude
589.331 km
Speed
7.566 km/s
True Right ascension
14h 40m 24s
True Declination
0° 00' 00"
Sunlit
Object was in daylight at epoch
Visualization orbit readout
Latitude
Unknown
Longitude
Unknown
Altitude
Unknown
Speed
Unknown
Apparent Right ascension
Unknown
Apparent Declination
Unknown
Sunlit
N/A
Visualization observer readout
Local Sidereal Time
06:56:48
Azimuth
Unknown
Elevation
Unknown
Doppler factor
Unknown
Orbital elements
Apogee altitude
585.036 km
Perigee altitude
583.114 km
Semi-major axis
6,962.212 km
Eccentricity
0.00014
Inclination
97.7646°
RAAN
220.1036°
Arg. of periapsis
36.7492°
True anomaly
323.37277°
Mean anomaly
323.3822°
Eccentric anomaly
323.37748°
Mean motion
3.73613 °/min
Orbital period
96.36 mins
BSTAR
0.00027817
Loading maneuver chart data...
Computing Atmospheric mass density...
Loading historical data...
Loading historical data...
Loading historical data...
Loading historical data...
Loading historical data...
Loading historical data...
Loading historical data...

Documentation

Showing up to 5 results
|